Weather History for KBGM - July, 2014

Change the Weather History Date:

Tuesday, July 22, 2014

  Actual Average Record
Temperature  
Mean Temperature 75 °F 69 °F  
Max Temperature 84 °F 78 °F 95 °F (1955)
Min Temperature 66 °F 60 °F 49 °F (1970)
Degree Days  
Heating Degree Days 0 1  
Month to date heating degree days 8 22  
Since 1 June heating degree days 53 113  
Since 1 July heating degree days 8 22  
Cooling Degree Days 10 5  
Month to date cooling degree days 104 101  
Year to date cooling degree days 214 198  
Since 1 June cooling degree days 189 175  
Growing Degree Days 25 (Base 50)    
Moisture  
Dew Point 66 °F    
Average Humidity 76    
Maximum Humidity 93    
Minimum Humidity 58    
Precipitation  
Precipitation 0.00 in 0.11 in 1.08 in (2013)
Month to date precipitation 3.00 2.64  
Year to date precipitation 22.73 21.70  
Snow  
Snow 0.00 in 0.00 in 0.00 in (2002)
Month to date snowfall 0.0 0.0  
Since 1 June snowfall 0.0 0.0  
Since 1 July snowfall 0.0 0.0  
Snow Depth 0.00 in    
Sea Level Pressure  
Sea Level Pressure 30.12 in    
Wind  
Wind Speed 6 mph (SW)    
Max Wind Speed 14 mph    
Max Gust Speed 17 mph    
Visibility 9 miles    
Events      
T = Trace of Precipitation, MM = Missing Value Source: NWS Daily Summary

Daily Weather History Graph

Daily Weather History Graph

Search for Another Location

Airport or City:

Trip Planner

Search our weather history database for the weather conditions in past years. The results will help you decide how hot, cold, wet, or windy it might be!

Date:

Astronomy

Jul. 22, 2014 Rise Set
Actual Time 5:47 AM EDT 8:33 PM EDT
Civil Twilight 5:14 AM EDT 9:05 PM EDT
Nautical Twilight 4:33 AM EDT 9:46 PM EDT
Astronomical Twilight 3:45 AM EDT 10:34 PM EDT
Moon 2:19 AM EDT (7/22) 5:08 PM EDT (7/22)
Length of Visible Light 15h 51m
Length of Day
14h 46m
Waning Crescent, 16% of the Moon is Illuminated
Jul 22
Waning Crescent
Jul 26
New
Aug 3
First Quarter
Aug 10
Full
Aug 17
Last Quarter

Hourly Weather History & Observations

Time (EDT) Temp. Heat Index Dew Point Humidity Pressure Visibility Wind Dir Wind Speed Gust Speed Precip Events Conditions
12:53 AM 70.0 °F - 64.0 °F 81% 30.16 in 10.0 mi SSW 4.6 mph - N/A   Overcast
1:53 AM 69.1 °F - 64.0 °F 84% 30.15 in 10.0 mi SSW 4.6 mph - N/A   Overcast
2:53 AM 68.0 °F - 64.0 °F 87% 30.15 in 10.0 mi SSW 4.6 mph - N/A   Mostly Cloudy
3:53 AM 68.0 °F - 64.0 °F 87% 30.15 in 10.0 mi South 3.5 mph - N/A   Overcast
4:53 AM 66.0 °F - 64.0 °F 93% 30.15 in 8.0 mi South 5.8 mph - N/A   Mostly Cloudy
5:53 AM 66.0 °F - 64.0 °F 93% 30.16 in 6.0 mi SSW 5.8 mph - N/A   Partly Cloudy
6:53 AM 66.9 °F - 64.9 °F 93% 30.17 in 5.0 mi South 3.5 mph - N/A   Clear
7:53 AM 68.0 °F - 64.9 °F 90% 30.17 in 6.0 mi SSW 5.8 mph - N/A   Partly Cloudy
8:21 AM 69.8 °F - 66.2 °F 88% 30.20 in 7.0 mi WSW 5.8 mph - N/A   Partly Cloudy
8:53 AM 71.1 °F - 66.0 °F 84% 30.17 in 8.0 mi WSW 8.1 mph - N/A   Scattered Clouds
9:31 AM 71.6 °F - 66.2 °F 83% 30.19 in 8.0 mi SW 6.9 mph - N/A   Overcast
9:51 AM 71.6 °F - 66.2 °F 83% 30.19 in 8.0 mi SW 6.9 mph - N/A   Overcast
9:53 AM 71.6 °F - 66.2 °F 83% 30.19 in 8.0 mi SW 6.9 mph - N/A   Overcast
10:42 AM 73.4 °F - 66.2 °F 78% 30.19 in 8.0 mi WSW 8.1 mph - N/A   Overcast
10:53 AM 73.9 °F - 66.9 °F 79% 30.16 in 8.0 mi SW 4.6 mph - N/A   Overcast
11:53 AM 75.9 °F - 66.9 °F 74% 30.15 in 9.0 mi West 3.5 mph - N/A   Mostly Cloudy
12:46 PM 78.8 °F - 66.2 °F 65% 30.16 in 10.0 mi SW 4.6 mph - N/A   Scattered Clouds
12:53 PM 79.0 °F - 66.9 °F 66% 30.12 in 10.0 mi Calm Calm - N/A   Partly Cloudy
1:53 PM 80.1 °F 82.3 °F 66.9 °F 64% 30.10 in 10.0 mi SSE 5.8 mph - N/A   Mostly Cloudy
2:53 PM 81.0 °F 83.3 °F 66.9 °F 62% 30.08 in 10.0 mi South 8.1 mph - N/A   Partly Cloudy
3:53 PM 82.4 °F 84.6 °F 66.2 °F 58% 30.10 in 10.0 mi SSW 8.1 mph - N/A   Scattered Clouds
4:53 PM 82.0 °F 84.5 °F 66.9 °F 60% 30.05 in 10.0 mi SW 11.5 mph - N/A   Clear
5:53 PM 82.0 °F 84.1 °F 66.0 °F 58% 30.05 in 10.0 mi SW 9.2 mph - N/A   Clear
6:53 PM 80.1 °F 82.1 °F 66.0 °F 62% 30.05 in 10.0 mi SW 9.2 mph - N/A   Clear
7:53 PM 78.1 °F - 66.9 °F 68% 30.05 in 10.0 mi SSW 6.9 mph - N/A   Clear
8:53 PM 75.9 °F - 66.9 °F 74% 30.04 in 10.0 mi SSW 6.9 mph - N/A   Clear
9:53 PM 75.0 °F - 66.9 °F 76% 30.04 in 10.0 mi SSW 6.9 mph - N/A   Clear
10:53 PM 73.9 °F - 66.9 °F 79% 30.01 in 10.0 mi SSW 8.1 mph - N/A   Clear
11:53 PM 73.0 °F - 66.9 °F 81% 30.01 in 10.0 mi SSW 9.2 mph - N/A   Clear